Regional Weather Roundup
Issued by NWS Wakefield, VA

Home | Current Version | Previous Version | Text Only | Print | Product List | Glossary On
Versions: 1 2 3 4 5 6 7 8 9 10 11 12 13 14 15 16 17 18 19 20 21 22 23 24 25 26 27 28 29 30 31 32 33 34 35 36 37 38 39 40 41 42 43 44 45 46 47 48 49 50
000
ASUS41 KAKQ 270610
RWRAKQ

REGIONAL WEATHER ROUNDUP
NATIONAL WEATHER SERVICE WAKEFIELD VA
100 AM EST FRI FEB 27 2015

Note: "fair" indicates few or no clouds below 12,000 feet with no
significant weather and/or obstructions to visibility. * = Denotes
station may not report precipitation (e.g., rain,snow,etc.),
thunder or fog.

VAZ042-051-052>054-056-270700-
NORTHERN VIRGINIA

CITY           SKY/WX    TMP DP  RH WIND       PRES   REMARKS
WASH NATIONAL  CLOUDY    33  22  63 CALM      30.19R
DULLES         CLOUDY    30  24  78 CALM      30.16R
FORT BELVOIR   NOT AVBL
QUANTICO       CLOUDY    32  25  75 CALM      30.20R
FREDERICKSBRG* CLOUDY    31  28  90 CALM      30.18R
STAFFORD*      CLOUDY    29  28  94 CALM      30.22R
WARRENTON      CLOUDY    31  31 100 CALM      30.15R
CULPEPER*      MOCLDY    30  27  86 CALM      30.16R
MANASSAS*      CLOUDY    30  28  93 CALM      30.17R
LEESBURG*      CLOUDY    32  27  80 CALM      30.17R
WINCHESTER     MOCLDY    32  21  64 CALM      30.14R
FRONT ROYAL*   CLOUDY    28  25  86 CALM      30.13R
LURAY*         CLOUDY    30  28  93 CALM      30.12R
$$

VAZ048-049-060>072-079>083-270700-
CENTRAL AND SOUTH CENTRAL VIRGINIA

CITY           SKY/WX    TMP DP  RH WIND       PRES   REMARKS
RICHMOND       CLOUDY    28  25  88 CALM      30.18R FOG
CHESTERFIELD*  CLOUDY    28  18  64 CALM      30.18R
PETERSBURG*    CLOUDY   N/A N/A N/A CALM      30.18R
HANOVER        CLOUDY    28  26  92 CALM      30.18R FOG
TAPPAHANNOCK*  CLOUDY    25  21  87 CALM      30.18S
QUINTON*       CLOUDY    24  24  97 W3        30.18R
CHARLOTTSVILLE CLOUDY    32  26  78 CALM      30.13R
GORDONSVILLE*  CLOUDY    30  27  87 CALM      30.14R
ORANGE*        CLOUDY    32  30  93 CALM      30.16R
LOUISA*        CLOUDY    32  28  86 CALM      30.14R
BUMPASS*       CLOUDY    30  27  91 CALM      30.15R
FARMVILLE*     CLOUDY    26  26 100 CALM      30.15R FOG
CREWE*         CLOUDY    27  26  95 CALM      30.15S
FORT PICKETT*  CLOUDY    26  25  99 CALM      30.16R
CHASE CITY*    CLOUDY    28  28 100 CALM      30.16R
CLARKSVILLE*   CLOUDY    28  27  93 CALM      30.16S
SOUTH HILL*    CLOUDY    25  25  98 CALM      30.22S
LAWRENCEVILLE* CLOUDY    28  27  99 CALM      30.17R VSB 1/2
EMPORIA*         N/A     25  25 100 MISG        N/A
$$

VAZ088>098-270700-
SOUTHEAST VIRGINIA

CITY           SKY/WX    TMP DP  RH WIND       PRES   REMARKS
NORFOLK        MOCLDY    29  25  85 N3        30.17R
VIRGINIA BEACH MOCLDY    29  26  89 NW6       30.17R FOG
NORFOLK NAVAL  PTCLDY    30  25  81 CALM      30.19R FOG
WEST POINT*      N/A     23  20  89 CALM      30.21R
SALUDA*        FAIR      20  19  93 CALM      30.19R
NEWPORT NEWS   HAZE      24  19  81 CALM      30.18R VSB 1/4
LANGLEY AFB    FOG       23  21  93 W2        30.18R VSB 1/4
FORT EUSTIS    FOG       23  23 100 CALM      30.16R VSB 1/2
WILLIAMSBURG*  CLEAR     27  25  93 CALM      30.19R
HR EXEC AP*    FAIR      23  19  86 CALM      30.20R
FRANKLIN*      FOG       26  26  99 CALM      30.19R VSB 1/4
WAKEFIELD      FOG       23  19  85 CALM      30.19R VSB 1/2
$$

VAZ020-022-025-037-045-270700-
WEST CENTRAL AND SOUTHWEST VIRGINIA

CITY           SKY/WX    TMP DP  RH WIND       PRES   REMARKS
STAUNTON*      MOCLDY    29  24  83 CALM      30.12R
WAYNESBORO*    MOCLDY    29  25  84 W3        30.10R
HOT SPRINGS VA FAIR      20  16  83 W13       29.96R WCI   8
LYNCHBURG      CLEAR     28  27  96 S5        30.14R
DANVILLE       FOG       27  24  89 CALM      30.17R VSB 1/4
SOUTH BOSTON*  CLOUDY    27  26  96 CALM      30.17S
MARTINSVILLE   FOG       28  28 100 CALM      30.17R VSB 1/2
ROANOKE        CLOUDY    32  22  66 W3        30.14R
BLACKSBURG     CLOUDY    28  22  76 W3        30.12R
DUBLIN*        CLOUDY    31  26  80 W8        30.11R
MARION*        CLOUDY    29  21  70 W12       30.11S WCI  20
HILLSVILLE*    MOCLDY    28  23  81 NW13      30.06S WCI  17
RICHLANDS*     CLOUDY    25  17  70 W6        30.11S
WISE*          CLOUDY    27  16  63 NW5       30.13R
ABINGDON*      CLOUDY    32  22  67 NW6       30.14R
$$

MDZ021>025-VAZ099-100-270700-
SOUTHERN MARYLAND AND THE DELMARVA PENINSULA

CITY           SKY/WX    TMP DP  RH WIND       PRES   REMARKS
PATUXENT RIVER CLOUDY    23  21  92 CALM      30.18R
BAY BRIDGE APT   N/A     28  23  80 CALM      30.18R
LEONARDTOWN    CLOUDY    25  21  86 CALM      30.19R
DOVER          NOT AVBL
GEORGETOWN     MOCLDY    19  14  81 CALM      30.18R HAZE
EASTON         CLOUDY    28  25  89 CALM      30.21R
CAMBRIDGE      CLOUDY    27  23  86 CALM      30.17R
SALISBURY      FOG       18  14  84 CALM      30.18R VSB 1/4
OCEAN CITY     PTCLDY    17  14  88 CALM      30.18R FOG
WALLOPS ISLAND PTCLDY    22  21  96 CALM      30.18R
ACCOMACK*      FOG       21  19  93 NE3       30.17R VSB<1/4
$$

NCZ012>017-030>032-270700-
NORTH CENTRAL AND EASTERN NORTH CAROLINA

CITY           SKY/WX    TMP DP  RH WIND       PRES   REMARKS
ROANOKE RAPIDS FOG       28  28 100 CALM      30.18R VSB 1/2
RALEIGH        MOCLDY    28  25  88 CALM      30.17S FOG
ELIZABETH CITY NOT AVBL
AHOSKIE*       FOG       28  28  97 CALM      30.19R VSB 1/4
EDENTON*       CLOUDY    32  29  90 N3        30.17S
CURRITUCK*     CLOUDY    32  25  77 N5        30.17S
KILL DEVIL HLS CLOUDY    33  29  86 N6        30.13R
MANTEO         CLOUDY    34  28  80 N9        30.15R
CAPE HATTERAS  CLOUDY    34  31  88 VRB7      30.11R
TARBORO*       FOG       29  29  98 CALM      30.19S VSB 1/4
GOLDSBORO      NOT AVBL
WASHINGTON     CLOUDY    33  31  94 NW3       30.17S
GREENVILLE     CLOUDY    32  32 100 CALM      30.19S
NEW BERN       CLOUDY    34  30  85 N8        30.17S
WILMINGTON     CLOUDY    36  32  85 N3        30.16S
$$

VAZ048-270700-
ELSEWHERE

CITY           SKY/WX    TMP DP  RH WIND       PRES   REMARKS
HARRISBURG PA  MOCLDY    25  15  66 NW6       30.16R
BALTIMORE      CLOUDY    28  21  75 CALM      30.16R
ANNAPOLIS      CLOUDY    29  22  75 CALM      30.18R
ANDREWS AFB    NOT AVBL
PHILADELPHIA   MOCLDY    26  18  71 CALM      30.18R
HENDERSON NC   CLOUDY    27  25  95 CALM      30.16S FOG
GREENSBORO     CLEAR     29  27  92 CALM      30.15R FOG
ROCKY MOUNT    FOG       27  27 100 CALM      30.18S VSB 1/4
$$

VAZ100-270700-
MARINE

STATION/POSITION TIME  TEMP    WIND        PRES    WAVE   SWELL
                       AIR SEA DIR/SP/G            HT/PER HT/PER
                 (UTC) (F)     (DEG/KT/KT) (MB)    (FT/S) (FT/S)
BRANDYWINE LGT   0600           40/  5/  5   N/A
CAPE MAY NJ      0600           50/  2/  2   N/A
LEWES DE         0600   26 30  270/  1/  2 1021.7
15NM E FENWICK I 0600   31 36              1021.1R   7/ 8
OCEAN-CITY-INLET 0600   26 32  350/  4/  5 1021.5
WACHAPREAGUE VA  0600   25 32   CALM  /  3 1021.7R
THOMAS POINT MD  0600   29 31  260/  3/  3 1023.2R
COVE POINT MD    0600   28      CALM  /  1 1021.7R
SOLOMONS ISLAND  0600      32                N/A
BISHOPS HEAD MD  0600           50/  2/  3   N/A
CAMBRIDGE MD     0600             CALM       N/A
LEWISETTA VA     0600             CALM     1021.8R
RAPPAHANNOCK LGT 0600           60/  3/  4 1022.1R
STINGRAY PT      0600   30      40/  2/  2   N/A
YORK RVR RNG VA  0600   30     330/  3/  3 1021.1R
YORKTOWN VA      0600   27 33  270/  3/  4 1021.6R
DOMINION TERM VA 0600   30     350/  2/  2 1021.9R
KIPTOPEKE VA     0600           50/  3/  3   N/A
CHES BAY BRIDGE  0600   31 33  340/  5/  6 1021.5
CAPE HENRY VA    0600   30     350/  9/ 10 1020.4R
CHESAPEAKE LGHT  0500   32      10/ 12/ 13 1021.3R
WILLOUBY STN VA  0600           30/  2/  3 1022.1R
S CRANEY ISL VA  0600          340/  3/  4 1021.8S
CAPE HENRY BUOY  0600      35                N/A     6/10   2/11
1ST LANDING BUOY 0600   31     340/  6/  6 1021.4R
OFFSHORE WE BUOY 0600      38                N/A     8/ 9   8/ 9
64NM E OF VA BCH 0600   42 60   10/ 17/ 23 1018.9R  10/11   8/11
DUCK PIER NC     0600   33 34   20/ 17/ 19 1019.5R
44100 DUCK FRF   0600      36                N/A    10/11   5/11
44056 DUCK FRF   0600      35                N/A     8/11   3/11
OREGON INLET NC  0600          340/  8/ 13   N/A
HATTERAS NC      0600   34 40  350/ 18/ 20 1020.0
CAPE LOOKOUT NC  0600   35     360/ 12/ 13 1020.5R
$$


USA.gov is the U.S. government's official web portal to all federal, state and local government web resources and services.